When you browse on this site, cookies collect data to enhance your experience and personalize the content and advertising you see.
Visit our Privacy Policy to learn more. By continuing to use the site, you agree to this use of cookies and data.
  • In United Kingdom
  • List of Countries
  • For 7 days
  • Water Temperature
  • Weather Map
  • Weather Widgets
  • user-avatar
    Login

    Hourly Weather Izoitki

    Today, 9 April, Thursday

    Time Temperature Precipitation Wind Pressure Humidity
    00:00 +6°C° 0 mm 2 mps 754 mmHg 69%
    01:00 +5°C° 0 mm 2 mps 753 mmHg 72%
    02:00 +4°C° 0 mm 3 mps 752 mmHg 75%
    03:00 +4°C° 0 mm 3 mps 752 mmHg 74%
    04:00 +4°C° 0 mm 4 mps 751 mmHg 74%
    05:00 +4°C° 0 mm 4 mps 751 mmHg 73%
    06:00 +6°C° 0 mm 5 mps 750 mmHg 69%
    07:00 +7°C° 0 mm 6 mps 749 mmHg 66%
    08:00 +8°C° 0 mm 6 mps 749 mmHg 62%
    09:00 +9°C° 0 mm 6 mps 748 mmHg 59%
    10:00 +11°C° 0 mm 6 mps 748 mmHg 55%
    11:00 +13°C° 0 mm 6 mps 747 mmHg 52%
    12:00 +13°C° 0.1 mm 6 mps 747 mmHg 55%
    13:00 +13°C° 0.1 mm 6 mps 746 mmHg 59%
    14:00 +12°C° 0.1 mm 7 mps 745 mmHg 62%
    15:00 +11°C° 1 mm 6 mps 745 mmHg 69%
    16:00 +10°C° 1 mm 5 mps 745 mmHg 76%
    17:00 +9°C° 1 mm 5 mps 744 mmHg 83%
    18:00 +8°C° 0.2 mm 5 mps 745 mmHg 85%
    19:00 +7°C° 0.2 mm 5 mps 745 mmHg 86%
    20:00 +7°C° 0.2 mm 5 mps 745 mmHg 87%
    21:00 +5°C° 0.1 mm 5 mps 746 mmHg 83%
    22:00 +3°C° 0.1 mm 5 mps 746 mmHg 80%
    23:00 +2°C° 0.1 mm 5 mps 747 mmHg 76%

    Tomorrow, 10 April, Friday

    Time Temperature Precipitation Wind Pressure Humidity
    00:00 +1°C° 0 mm 5 mps 747 mmHg 77%
    01:00 0°C° 0 mm 4 mps 747 mmHg 77%
    02:00 -1°C° 0 mm 4 mps 748 mmHg 78%
    03:00 -1°C° 0 mm 4 mps 748 mmHg 80%
    04:00 -2°C° 0 mm 4 mps 748 mmHg 83%
    05:00 -2°C° 0 mm 4 mps 749 mmHg 86%
    06:00 -1°C° 0 mm 4 mps 749 mmHg 82%
    07:00 0°C° 0 mm 4 mps 750 mmHg 79%
    08:00 +1°C° 0 mm 5 mps 750 mmHg 76%
    09:00 +2°C° 0 mm 5 mps 750 mmHg 69%
    10:00 +5°C° 0 mm 5 mps 750 mmHg 62%
    11:00 +6°C° 0 mm 5 mps 750 mmHg 55%
    12:00 +5°C° 0 mm 6 mps 750 mmHg 52%
    13:00 +7°C° 0 mm 6 mps 750 mmHg 49%
    14:00 +8°C° 0 mm 6 mps 750 mmHg 46%
    15:00 +7°C° 0.1 mm 6 mps 750 mmHg 46%
    16:00 +7°C° 0.1 mm 5 mps 750 mmHg 47%
    17:00 +7°C° 0.1 mm 5 mps 750 mmHg 48%
    18:00 +5°C° 0 mm 5 mps 750 mmHg 50%
    19:00 +3°C° 0 mm 5 mps 750 mmHg 52%
    20:00 +1°C° 0 mm 5 mps 751 mmHg 54%
    21:00 0°C° 0 mm 5 mps 751 mmHg 56%
    22:00 0°C° 0 mm 5 mps 751 mmHg 58%
    23:00 -1°C° 0 mm 5 mps 752 mmHg 60%

    Day after tomorrow, 11 April, Saturday

    Time Temperature Precipitation Wind Pressure Humidity
    00:00 -1°C° 0 mm 4 mps 752 mmHg 62%
    01:00 -2°C° 0 mm 4 mps 752 mmHg 64%
    02:00 -2°C° 0 mm 4 mps 752 mmHg 65%
    03:00 -3°C° 0 mm 4 mps 753 mmHg 68%
    04:00 -3°C° 0 mm 4 mps 753 mmHg 70%
    05:00 -3°C° 0 mm 4 mps 753 mmHg 73%
    06:00 -2°C° 0 mm 5 mps 753 mmHg 69%
    07:00 -1°C° 0 mm 5 mps 754 mmHg 64%
    08:00 -1°C° 0 mm 6 mps 754 mmHg 60%
    09:00 +1°C° 0 mm 6 mps 754 mmHg 55%
    10:00 +2°C° 0 mm 6 mps 754 mmHg 50%
    11:00 +3°C° 0 mm 6 mps 755 mmHg 45%
    12:00 +3°C° 0 mm 5 mps 755 mmHg 42%
    13:00 +5°C° 0 mm 5 mps 755 mmHg 40%
    14:00 +5°C° 0 mm 5 mps 755 mmHg 37%
    15:00 +5°C° 0 mm 5 mps 755 mmHg 36%
    16:00 +5°C° 0 mm 4 mps 755 mmHg 35%
    17:00 +5°C° 0 mm 4 mps 755 mmHg 34%
    18:00 +4°C° 0 mm 3 mps 755 mmHg 39%
    19:00 +3°C° 0 mm 2 mps 755 mmHg 45%
    20:00 +2°C° 0 mm 2 mps 755 mmHg 50%
    21:00 +1°C° 0 mm 2 mps 756 mmHg 55%
    22:00 +1°C° 0 mm 2 mps 756 mmHg 59%
    23:00 -1°C° 0 mm 2 mps 756 mmHg 63%

    12 April, Sunday

    Time Temperature Precipitation Wind Pressure Humidity
    00:00 -1°C° 0 mm 2 mps 756 mmHg 66%
    01:00 -1°C° 0 mm 2 mps 756 mmHg 68%
    02:00 -1°C° 0 mm 2 mps 756 mmHg 70%
    03:00 -1°C° 0 mm 2 mps 755 mmHg 73%
    04:00 -1°C° 0 mm 2 mps 755 mmHg 76%
    05:00 -1°C° 0 mm 2 mps 755 mmHg 79%
    06:00 +1°C° 0 mm 2 mps 755 mmHg 75%
    07:00 +1°C° 0 mm 3 mps 754 mmHg 70%
    08:00 +3°C° 0 mm 3 mps 754 mmHg 66%
    09:00 +4°C° 0 mm 3 mps 754 mmHg 60%
    10:00 +6°C° 0 mm 4 mps 753 mmHg 54%
    11:00 +7°C° 0 mm 4 mps 752 mmHg 47%
    12:00 +8°C° 0 mm 5 mps 752 mmHg 49%
    13:00 +8°C° 0 mm 5 mps 751 mmHg 50%
    14:00 +8°C° 0 mm 5 mps 751 mmHg 52%
    15:00 +8°C° 0 mm 6 mps 750 mmHg 54%
    16:00 +8°C° 0 mm 6 mps 750 mmHg 57%
    17:00 +7°C° 0 mm 6 mps 749 mmHg 59%
    18:00 +7°C° 0.1 mm 6 mps 748 mmHg 66%
    19:00 +5°C° 0.1 mm 6 mps 748 mmHg 73%
    20:00 +4°C° 0.1 mm 6 mps 747 mmHg 80%
    21:00 +5°C° 0.1 mm 6 mps 746 mmHg 74%
    22:00 +5°C° 0.1 mm 6 mps 746 mmHg 69%
    23:00 +5°C° 0.1 mm 6 mps 745 mmHg 63%

    13 April, Monday

    Time Temperature Precipitation Wind Pressure Humidity
    00:00 +5°C° 0 mm 6 mps 745 mmHg 63%
    01:00 +5°C° 0 mm 6 mps 744 mmHg 64%
    02:00 +5°C° 0 mm 6 mps 743 mmHg 64%
    03:00 +5°C° 0 mm 6 mps 742 mmHg 65%
    04:00 +5°C° 0 mm 6 mps 742 mmHg 66%
    05:00 +5°C° 0 mm 6 mps 741 mmHg 67%
    06:00 +5°C° 0 mm 6 mps 740 mmHg 67%
    07:00 +6°C° 0 mm 7 mps 740 mmHg 67%
    08:00 +8°C° 0 mm 7 mps 739 mmHg 68%
    09:00 +8°C° 0 mm 7 mps 739 mmHg 67%
    10:00 +9°C° 0 mm 6 mps 738 mmHg 67%
    11:00 +10°C° 0 mm 6 mps 738 mmHg 67%
    12:00 +7°C° 0.5 mm 6 mps 738 mmHg 76%
    13:00 +3°C° 0.5 mm 6 mps 738 mmHg 85%
    14:00 +1°C° 0.5 mm 6 mps 738 mmHg 93%
    15:00 +1°C° 0.3 mm 6 mps 738 mmHg 85%
    16:00 +1°C° 0.3 mm 5 mps 739 mmHg 76%
    17:00 +1°C° 0.3 mm 5 mps 739 mmHg 68%
    18:00 0°C° 0 mm 5 mps 739 mmHg 67%
    19:00 0°C° 0 mm 5 mps 740 mmHg 66%
    20:00 -2°C° 0 mm 6 mps 740 mmHg 65%
    21:00 -2°C° 0 mm 5 mps 740 mmHg 67%
    22:00 -4°C° 0 mm 5 mps 740 mmHg 69%
    23:00 -5°C° 0 mm 5 mps 741 mmHg 72%

    14 April, Tuesday

    Time Temperature Precipitation Wind Pressure Humidity
    00:00 -5°C° 0 mm 6 mps 740 mmHg 73%
    01:00 -5°C° 0 mm 6 mps 740 mmHg 74%
    02:00 -5°C° 0 mm 6 mps 740 mmHg 75%
    03:00 -5°C° 0 mm 6 mps 740 mmHg 77%
    04:00 -5°C° 0 mm 6 mps 740 mmHg 79%
    05:00 -6°C° 0 mm 7 mps 741 mmHg 80%
    06:00 -4°C° 0.1 mm 7 mps 741 mmHg 77%
    07:00 -4°C° 0.1 mm 7 mps 741 mmHg 73%
    08:00 -4°C° 0.1 mm 8 mps 742 mmHg 70%
    09:00 -4°C° 0.1 mm 8 mps 742 mmHg 65%
    10:00 -2°C° 0.1 mm 8 mps 742 mmHg 59%
    11:00 -1°C° 0.1 mm 8 mps 743 mmHg 54%
    12:00 -1°C° 0 mm 8 mps 743 mmHg 53%
    13:00 0°C° 0 mm 8 mps 744 mmHg 51%
    14:00 0°C° 0 mm 8 mps 744 mmHg 50%
    15:00 0°C° 0 mm 8 mps 744 mmHg 51%
    16:00 0°C° 0 mm 7 mps 745 mmHg 53%
    17:00 0°C° 0 mm 7 mps 745 mmHg 54%
    18:00 -1°C° 0 mm 6 mps 745 mmHg 58%
    19:00 -1°C° 0 mm 6 mps 746 mmHg 61%
    20:00 -1°C° 0 mm 5 mps 746 mmHg 65%
    21:00 -2°C° 0 mm 5 mps 746 mmHg 66%
    22:00 -3°C° 0 mm 6 mps 747 mmHg 68%
    23:00 -4°C° 0 mm 6 mps 747 mmHg 69%
    Show more